This demonstration page uses our WeatherBlox Daily Observations layout. Learn more.

Left ArrowRight Arrow

Hourly Observations for May 6, 2022

Temp ( °F °C ) Dew Point ( °F °C ) Humidity (%) Winds ( mph kmh ) Pressure ( in mb ) Visibility ( mi km ) Precip ( " mm )
12:15 am 00:15 Cloudy 55 12.6 54 12 96 96 Calm 29.82 1010 7 11 0.00 0.00
12:35 am 00:35 Cloudy 55 12.7 54 12 96 96 Calm 29.81 1010 7 11 0.00 0.00
12:55 am 00:55 Cloudy 55 12.7 54 12 96 96 Calm 29.80 1009 7 11 0.00 0.00
1:15 am 01:15 Cloudy with Mist and Fog 55 12.7 54 12.1 96 96 Calm 29.79 1009 5 8 0.00 0.00
1:35 am 01:35 Cloudy with Mist and Fog 55 12.7 54 12.1 96 96 Calm 29.78 1009 5 8 0.00 0.00
1:55 am 01:55 Cloudy with Mist and Fog 55 12.7 54 12.1 96 96 Calm 29.77 1008 5 8 0.00 0.00
2:15 am 02:15 Cloudy with Mist and Fog 55 12.7 54 12.1 96 96 Calm 29.76 1008 5 8 0.00 0.00
2:35 am 02:35 Cloudy with Mist and Fog 55 12.7 54 12.1 96 96 Calm 29.76 1008 5 8 0.00 0.00
2:55 am 02:55 Cloudy with Mist and Fog 55 12.7 54 12.1 96 96 Calm 29.75 1007 5 8 0.00 0.00
3:15 am 03:15 Cloudy with Mist and Fog 55 12.7 54 12.2 97 97 Calm 29.74 1007 5 8 0.00 0.00
3:35 am 03:35 Cloudy with Mist and Fog 55 12.7 54 12.2 97 97 Calm 29.74 1007 5 8 0.00 0.00
3:55 am 03:55 Cloudy with Mist and Fog 55 12.7 54 12.2 97 97 Calm 29.74 1007 5 8 0.00 0.00
4:15 am 04:15 Cloudy with Mist and Fog 55 12.8 54 12.2 96 96 Calm 29.74 1007 4 6 0.00 0.00
4:35 am 04:35 Cloudy with Mist and Fog 55 12.6 54 12.3 98 98 Calm 29.72 1006 4 6 0.01 0.25
4:55 am 04:55 Cloudy with Mist and Fog 55 12.6 54 12.3 98 98 Calm 29.72 1006 4 6 0.01 0.25
5:15 am 05:15 Cloudy with Mist and Fog 55 12.6 54 12.2 97 97 Calm 29.71 1006 4 6 0.00 0.00
5:35 am 05:35 Cloudy with Drizzle 55 12.6 54 12.3 98 98 Calm 29.71 1006 3 5 0.00 0.00
5:55 am 05:55 Cloudy with Mist and Fog 55 12.6 54 12.3 98 98 Calm 29.70 1006 3 5 0.00 0.00
6:15 am 06:15 Cloudy with Mist and Fog 55 12.6 55 12.5 99 99 Calm 29.69 1005 3 5 0.00 0.00
6:35 am 06:35 Cloudy with Mist and Fog 55 12.6 55 12.5 99 99 Calm 29.69 1005 3 4 0.00 0.00
6:55 am 06:55 Cloudy with Mist and Fog 55 12.7 55 12.5 99 99 Calm 29.68 1005 3 4 0.00 0.00
7:15 am 07:15 Cloudy with Mist and Fog 55 12.8 55 12.6 99 99 Calm 29.68 1005 1 2 0.00 0.00
7:35 am 07:35 Cloudy with Mist and Fog 55 12.9 55 12.7 99 99 Calm 29.68 1005 1 2 0.00 0.00
7:55 am 07:55 Cloudy with Mist and Fog 55 13 55 12.8 99 99 Calm 29.68 1005 1 2 0.00 0.00
8:15 am 08:15 Cloudy with Mist and Fog 56 13.2 55 13 99 99 Calm 29.69 1005 1 2 0.00 0.00
8:35 am 08:35 Cloudy with Mist and Fog 56 13.3 56 13.1 99 99 Calm 29.68 1005 1 2 0.00 0.00
8:55 am 08:55 Cloudy with Fog 56 13.1 55 13 99 99 Calm 29.68 1005 1 1 0.00 0.00
9:15 am 09:15 Cloudy with Fog 56 13.2 56 13.1 99 99 ENE 6 9 29.67 1005 1 1 0.00 0.00
9:35 am 09:35 Cloudy with Fog 56 13.1 55 13 99 99 ENE 7 11 29.66 1004 1 1 0.00 0.00
9:55 am 09:55 Cloudy with Fog 56 13.2 56 13.1 99 99 ENE 5 7 29.66 1004 1 1 0.00 0.00
10:15 am 10:15 Cloudy with Light Rain 56 13.1 55 13 99 99 NE 3 6 29.66 1004 1 1 0.00 0.00
10:35 am 10:35 Cloudy with Rain 56 13.1 55 13 99 99 ENE 6 9 29.66 1004 1 1 0.01 0.25
10:55 am 10:55 Cloudy with Drizzle 56 13.2 56 13.1 99 99 NE 6 9 29.65 1004 1 2 0.01 0.25
11:15 am 11:15 Cloudy with Drizzle 56 13.2 56 13.1 99 99 NE 6 9 29.65 1004 2 3 0.00 0.00
11:35 am 11:35 Cloudy with Drizzle 56 13.4 56 13.3 99 99 ENE 6 9 29.65 1004 2 3 0.01 0.25
11:55 am 11:55 Cloudy with Drizzle 56 13.6 56 13.5 99 99 Calm 29.64 1004 2 3 0.02 0.51
12:15 pm 12:15 Cloudy with Drizzle 57 13.7 56 13.5 99 99 Calm 29.64 1004 3 5 0.00 0.00
12:35 pm 12:35 Cloudy with Drizzle 57 13.9 56 13.4 97 97 NE 9 15 29.63 1003 3 5 0.00 0.00
12:55 pm 12:55 Cloudy with Drizzle 57 13.9 56 13.4 97 97 ENE 6 9 29.63 1003 5 8 0.00 0.00
1:15 pm 13:15 Cloudy with Light Rain 57 14 56 13.3 96 96 ENE 6 9 29.62 1003 10 16 0.00 0.00
1:35 pm 13:35 Cloudy 56 13.5 56 13.1 97 97 NE 9 15 29.62 1003 3 5 0.03 0.76
1:55 pm 13:55 Cloudy with Nearby Thunderstorms 56 13.4 55 13 97 97 NE 7 11 29.61 1003 5 8 0.09 2.29
2:15 pm 14:15 Cloudy with Nearby Thunderstorms 56 13.2 55 12.9 98 98 NNE 8 13 29.61 1003 10 16 0.00 0.00
2:35 pm 14:35 Cloudy with Light Rain 56 13.3 55 12.9 97 97 NNE 12 19 29.60 1002 4 6 0.02 0.51
2:55 pm 14:55 Cloudy with Mist and Fog 57 13.8 56 13.3 97 97 NNE 14 22 29.60 1002 5 8 0.02 0.51
3:15 pm 15:15 Cloudy with Light Rain 56 13.5 55 12.9 96 96 NNE 13 20 29.60 1002 10 16 0.00 0.00
3:35 pm 15:35 Cloudy 56 13.5 55 12.5 94 94 NE 15 24 29.61 1003 10 16 0.00 0.00
3:55 pm 15:55 Cloudy 56 13.6 55 12.6 94 94 NNE 16 26 29.61 1003 10 16 0.00 0.00
4:15 pm 16:15 Cloudy 56 13.5 54 12.2 92 92 NE 10 17 29.62 1003 10 16 0.00 0.00
4:35 pm 16:35 Cloudy with Thunderstorms 56 13.5 54 12.2 92 92 NE 10 17 29.61 1003 10 16 0.01 0.25
4:55 pm 16:55 Cloudy with Thunderstorms 56 13.5 55 12.5 94 94 NE 13 20 29.60 1002 7 11 0.04 1.02
5:15 pm 17:15 Cloudy with Light Rain 56 13.5 54 12.4 93 93 NE 13 20 29.60 1002 10 16 0.01 0.25
5:35 pm 17:35 Cloudy 56 13.5 54 12.2 92 92 NE 15 24 29.60 1002 10 16 0.01 0.25
5:55 pm 17:55 Cloudy 56 13.6 54 12.3 92 92 NE 14 22 29.60 1002 10 16 0.01 0.25
6:15 pm 18:15 Cloudy 56 13.3 53 11.8 91 91 NE 14 22 29.61 1003 10 16 0.00 0.00
6:35 pm 18:35 Cloudy 55 13 53 11.5 91 91 NNE 17 28 29.62 1003 10 16 0.00 0.00
6:55 pm 18:55 Cloudy 55 12.7 52 11.3 91 91 NNE 7 11 29.62 1003 10 16 0.00 0.00
7:15 pm 19:15 Cloudy 54 12.4 52 10.9 91 91 NE 17 28 29.62 1003 10 16 0.00 0.00
7:35 pm 19:35 Cloudy 54 12 51 10.6 91 91 NNE 13 20 29.63 1004 10 16 0.00 0.00
7:55 pm 19:55 Cloudy 53 11.8 50 10.2 90 90 NE 15 24 29.65 1004 10 16 0.00 0.00
8:15 pm 20:15 Cloudy 53 11.7 50 10 89 89 NE 18 30 29.66 1005 10 16 0.00 0.00
8:35 pm 20:35 Cloudy 53 11.7 50 10 89 89 NE 15 24 29.67 1005 10 16 0.00 0.00
8:55 pm 20:55 Cloudy 53 11.5 49 9.7 89 89 NE 14 22 29.68 1005 10 16 0.00 0.00
9:15 pm 21:15 Cloudy 52 11.1 49 9.7 91 91 NE 18 30 29.69 1005 10 16 0.00 0.00
9:35 pm 21:35 Cloudy 52 11 48 9.1 88 88 NE 14 22 29.70 1006 10 16 0.00 0.00
9:55 pm 21:55 Cloudy 51 10.8 48 8.7 87 87 NE 21 33 29.71 1006 10 16 0.00 0.00
10:15 pm 22:15 Cloudy 51 10.8 48 8.7 87 87 NE 15 24 29.71 1006 10 16 0.00 0.00
10:35 pm 22:35 Cloudy 51 10.8 47 8.6 86 86 NE 18 30 29.72 1006 10 16 0.00 0.00
10:55 pm 22:55 Cloudy 51 10.8 47 8.6 86 86 NE 16 26 29.72 1006 10 16 0.00 0.00
11:15 pm 23:15 Cloudy 51 10.8 48 8.8 88 88 NE 17 28 29.72 1006 10 16 0.00 0.00
11:35 pm 23:35 Cloudy 51 10.5 49 9.2 92 92 NNE 16 26 29.72 1006 7 11 0.00 0.00
11:55 pm 23:55 Cloudy with Light Rain 50 10.1 49 9.3 95 95 NNE 15 24 29.72 1006 5 8 0.00 0.00

Powered by AerisWeather